Regional Weather Roundup
Issued by NWS

Home | Current Version | Previous Version | Graphics & Text | Print | Product List | Glossary On
Versions: 1 2 3 4 5 6 7 8 9 10 11 12 13 14 15 16 17 18 19 20 21 22 23 24 25 26 27 28 29 30 31 32 33 34 35 36 37 38 39 40 41 42 43 44 45 46 47 48 49 50
000
ASUS45 KSLC 010310
RWRUT

UTAH REGIONAL WEATHER ROUNDUP
NATIONAL WEATHER SERVICE SALT LAKE CITY UT
900 PM MDT TUE SEP 30 2014

UTZ001>011-023>025-010400-

NORTHERN UTAH

CITY           SKY/WX    TMP DP  RH WIND       PRES   REMARKS
HILL AFB       PTCLDY    49  45  85 E7        29.95S
LOGAN          NOT AVBL
OGDEN          PTCLDY    50  47  89 CALM      29.94S
PROVO AIRPORT  NOT AVBL
SALT LAKE CITY MOCLDY    53  48  83 SW6       29.94R
VERNAL         MOCLDY    53  41  63 CALM      29.94R
WENDOVER       CLOUDY    55  46  71 CALM      29.95S
HEBER CITY     MOCLDY    45  43  93 CALM      29.97S
WEST JORDAN    CLOUDY    52  50  93 CALM      29.96R

$$

UTZ012>022-026-027-010400-

SOUTHERN UTAH

CITY           SKY/WX    TMP DP  RH WIND       PRES   REMARKS
BRYCE CANYON   CLEAR     42  34  73 W7        30.05S
CEDAR CITY     CLEAR     53  41  63 CALM      29.94R
MILFORD        PTCLDY    56  42  59 CALM      29.88S
MOAB/CYNLANDS  CLEAR     57  49  74 CALM      29.88R
PRICE          CLOUDY    57  37  47 NW6       29.95R
ST GEORGE      MOCLDY    72  37  28 CALM      29.84R
KANAB            N/A     57  39  51 S3        29.96R

$$

REGIONAL REPORTS     COLORADO/ARIZONA

CITY           SKY/WX    TMP DP  RH WIND       PRES   REMARKS
CRAIG, CO      CLOUDY    47  42  83 SW5       29.99S
GRAND JUNCTION CLEAR     51  46  83 E5        29.93R
RIFLE          PTCLDY    49  40  71 S9        29.98R
MONTROSE       CLEAR     49  44  83 SE6       30.00R
CORTEZ         CLEAR     47  42  83 NE7       29.99S
PAGE, AZ       NOT AVBL
GRAND CANYON   CLEAR     46  41  82 CALM      30.04R HAZE
KINGMAN        CLEAR     67  40  37 S10       29.87R
FLAGSTAFF      CLEAR     50  37  61 SW7       30.07R

$$

REGIONAL REPORTS    NEVADA/IDAHO/WYOMING

CITY           SKY/WX    TMP DP  RH WIND       PRES   REMARKS
LAS VEGAS, NV  CLEAR     81  37  20 S5        29.72S
ELY            CLOUDY    54  32  43 N6        29.97R
ELKO           CLOUDY    53  33  46 N6G17     30.02R
POCATELLO, ID  CLEAR     47  37  68 S13G23    29.97R
BURLEY         PTCLDY    47  35  63 S10       29.97R
EVANSTON, WY   MOCLDY    39  37  92 SW9       30.00S WCI  33
ROCK SPRINGS   CLOUDY    42  39  89 SW13      29.97R

$$


USA.gov is the U.S. government's official web portal to all federal, state and local government web resources and services.